Location: Arrodets-la-Barthe
(43.0306°N, 0.2829°E)
Time: 02:09:02
(UTC+00:00)

Cosmos 2344 - Pass Details

Date: 02 June 2022
Orbit: 1228 x 3015 km, 63.3° (Epoch: 04 July)

Event Time Altitude Azimuth Distance (km) Brightness Sun altitude
Rises 23:58:38 0° 304° (NW) 4,191 6.8 -24.8°
Reaches altitude 10° 00:02:21 10° 323° (NW) 3,314 6.4 -24.8°
Maximum altitude 00:07:45 19° 8° (N) 2,888 6.3 -24.8°
Drops below altitude 10° 00:13:58 10° 51° (NE) 3,889 6.6 -24.7°
Sets 00:18:52 0° 68° (ENE) 5,198 7.1 -24.6°
